Regional Weather Roundup
Issued by NWS

Home | Current Version | Previous Version | Text Only | Print | Product List | Glossary Off
Versions: 1 2 3 4 5 6 7 8 9 10 11 12 13 14 15 16 17 18 19 20 21 22 23 24 25 26 27 28 29 30 31 32 33 34 35 36 37 38 39 40 41 42 43 44 45 46 47 48 49 50

000
ASUS43 KBIS 291610
RWRND

NORTH DAKOTA REGIONAL WEATHER ROUNDUP
NATIONAL WEATHER SERVICE BISMARCK ND
1100 AM CDT MON JUN 29 2015

NOTE: "FAIR" INDICATES FEW OR NO CLOUDS BELOW 12,000 FEET WITH NO
SIGNIFICANT WEATHER AND/OR OBSTRUCTIONS TO VISIBILITY.


NDZ001>003-009>011-017-291700-
NORTHWEST NORTH DAKOTA

CITY           SKY/WX    TMP DP  RH WIND       PRES   REMARKS
WILLISTON      SUNNY     83  61  47 S7        29.99F
MINOT          PTSUNNY   81  60  48 W12       29.95F
MINOT AFB      SUNNY     83  62  48 W8        29.94F
$$

NDZ018>021-031>035-040>046-291700-
SOUTHWEST NORTH DAKOTA

CITY           SKY/WX    TMP DP  RH WIND       PRES   REMARKS
BISMARCK       SUNNY     80  62  54 W5        29.98F
DICKINSON      MOSUNNY   82  63  52 NW3       30.02S
GARRISON         N/A     82  64  54 NW6       29.98S
HETTINGER ARPT SUNNY     81  64  56 W6        30.05F
$$

NDZ004>008-012>016-024-026-027-054-291700-
NORTHEAST NORTH DAKOTA

CITY           SKY/WX    TMP DP  RH WIND       PRES   REMARKS
GRAND FORKS    CLOUDY    73  62  68 N9        29.84S
GRND FRKS AFB  SUNNY     73  61  67 N12       29.86R
DEVILS LAKE    SUNNY     72  61  68 N10       29.90R
$$

NDZ022-023-025-028>030-036>039-047>053-291700-
SOUTHEAST NORTH DAKOTA

CITY           SKY/WX    TMP DP  RH WIND       PRES   REMARKS
FARGO          SUNNY     74  62  66 W12       29.84S
JAMESTOWN      SUNNY     75  62  64 NW12      29.91S
$$



USA.gov is the U.S. government's official web portal to all federal, state and local government web resources and services.